Regional Weather Roundup
Issued by NWS

Home | Current Version | Previous Version | Text Only | Print | Product List | Glossary On
Versions: 1 2 3 4 5 6 7 8 9 10 11 12 13 14 15 16 17 18 19 20 21 22 23 24 25 26 27
000
ASCA42 TJSJ 252010
RWRPR
PUERTO RICO/U.S. VIRGIN ISLANDS HOURLY WEATHER ROUNDUP
NATIONAL WEATHER SERVICE SAN JUAN PR
400 PM AST SUN JUN 25 2017

PRZ001>002-007>008-010-252100-
PUERTO RICO

CITY           SKY/WX    TMP DP  RH WIND       PRES   REMARKS
SAN JUAN LMM   MOSUNNY   90  75  62 E16       30.03F HX 100
AGUADILLA      PTSUNNY   82  75  78 E17       30.05F
CEIBA          CLOUDY    86  79  79 E10       30.06F HX  99
$$

VIZ001>002-252100-
U.S. VIRGIN ISLANDS

CITY           SKY/WX    TMP DP  RH WIND       PRES   REMARKS
CHARLOTTE AMA  MOSUNNY   91  72  52 E14       30.03S HX  98
CHRISTIANSTED  PTSUNNY   88  73  62 E17       30.03F HX  96
$$

HOURLY WEATHER ROUNDUP FOR THE NEWS MEDIA

CITY           SKY/WX    TMP DP  RH WIND       PRES   REMARKS
ORLANDO        PTSUNNY   92  66  42 SE5       30.06F HX  94
NEW YORK       PTSUNNY   79  61  53 S20       29.94F
NEWARK         PTSUNNY   82  59  45 N12       29.92S
CHICAGO        PTSUNNY   70  45  40 W22       30.09R
HARTFORD       SUNNY     79  58  48 S15       29.89F
BOSTON         CLOUDY    82  50  32 W7        29.86F
DALLAS         MOSUNNY   86  62  44 E8        30.18F
PHILADELPHIA   PTSUNNY   85  54  34 SW12      29.94F
LOS ANGELES    SUNNY     76  61  59 W14       29.89F
WASHINGTON DC  PTSUNNY   85  52  32 NW12      30.00F



USA.gov is the U.S. government's official web portal to all federal, state and local government web resources and services.